Hourly Data Report for September 18, 2020

TORONTO CITY
ONTARIO
Current Station Operator: ECCC - MSC

43°40'00.000" N
79°24'00.000" W
112.50 m
6158355
71508
XTO

Download Data

Hourly Data (September 2020)
Hourly Data Report for September 18, 2020
TIME
LST
Temp Definition
°C
Dew Point Definition
°C
Rel Hum Definition
%
Precip. Amount Definition
mm

Wind Dir Definition
10's deg

Wind Spd Definition
km/h
Visibility Definition
km
Stn Press Definition
kPa
Hmdx Definition


Wind Chill Definition


Weather Definition


00:00 11.4 1.0 49 0.0       100.64     LegendNANA
01:00 10.5 -0.6 46 0.0       100.65     LegendNANA
02:00 9.3 -0.4 51 0.0       100.66     LegendNANA
03:00 8.8 0.5 56 0.0       100.68     LegendNANA
04:00 8.4 0.6 58 0.0       100.72     LegendNANA
05:00 8.2 0.3 58 0.0       100.76     LegendNANA
06:00 8.2 0.2 57 0.0       100.82     LegendNANA
07:00 8.4 0.0 56 0.0       100.89     LegendNANA
08:00 10.4 -0.7 46 0.0       100.94     LegendNANA
09:00 12.5 -3.1 33 0.0       101.02     LegendNANA
10:00 13.6 -3.2 31 0.0       101.07     LegendNANA
11:00 13.9 -3.9 29 0.0       101.10     LegendNANA
12:00 15.0 -3.4 28 0.0       101.10     LegendNANA
13:00 15.2 -1.7 31 0.0       101.08     LegendNANA
14:00 14.1 -2.4 32 0.0       101.08     LegendNANA
15:00 14.8 -3.1 29 0.0       101.06     LegendNANA
16:00 14.3 -3.7 28 0.2       101.07     LegendNANA
17:00 13.7 -4.5 28 0.0       101.11     LegendNANA
18:00 12.5 -3.5 33 0.0       101.16     LegendNANA
19:00 11.4 -2.5 38 0.0       101.22     LegendNANA
20:00 10.4 -2.1 42 0.0       101.30     LegendNANA
21:00 9.5 -1.4 46 0.0       101.34     LegendNANA
22:00 9.0 -1.0 50 0.0       101.40     LegendNANA
23:00 8.4 -0.8 52 0.0       101.44     LegendNANA

Notes on Data Quality.

Legend

  • E = Estimated
  • M = Missing
  • NA = Not Available*
  • [empty] = Indicates an unobserved value
Date modified: